DECAYED

STARLINK-1014, 44720 (Decayed)

Orbit data source: Space-Track

STARLINK-1014, 44720 was a payload satellite owned by SpaceX/Seattle (US) in LEO that was launched on Mon, 11 Nov 2019 UTC via an FALCON 9 launch vehicle from the Air Force Eastern Test Range (AFETR). Payload-class satellites include a variety of spacecraft equipped with specific instruments for various scientific and technological missions. These include communications satellites like Starlink; space stations such as the ISS; scientific satellites like the Hubble; Earth observation satellites from companies like Planet Labs, Umbra, and HawkEye 360; GPS; miniature CubeSats for education and research; and military/defense satellites.

Not visible in the next 10 days
Identifier
44720, 2019-074H
Orbit
Decayed
Country
Flag of USUS
Related business
Manufacturer
SpaceX/Seattle
Mission
Decayed Commercial Communications
Bus & Motor
STARLINK, Unknown motor
Mass
260 kg wet, ~248 kg dry
Launch date (UTC)
2019-11-11 (6 years ago)
Launch vehicle
FALCON 9
Launch site
Air Force Eastern Test Range (AFETR)
Object type
Payload
Rocket body
Debris
Shape & HBR
Box + 1 Pan, 10.1 m
Radar Cross Section
13.562 m², Large (>1 m²)

Expand to show TLE details & history
Last TLE update: 3 months ago

TLE from 3 months ago
0 STARLINK-1014
1 44720U 19074H   25196.72120822  .16642492  12439-4  46957-3 0  9996
2 44720  53.0100  84.7502 0009322 249.7005 214.4301 16.44703350314407
Epoch: 2025-07-15T17:18Z
TLE epoch observation values (Epoch: 2025-07-15T17:18:32.390Z)
Latitude
50.94169°
Longitude
3.94292°
Altitude
164.312 km
Speed
7.811 km/s
True Right ascension
13h 09m 33s
True Declination
50° 45' 29"
Sunlit
Object was in daylight at epoch
Visualization orbit readout
Latitude
Unknown
Longitude
Unknown
Altitude
Unknown
Speed
Unknown
Apparent Right ascension
Unknown
Apparent Declination
Unknown
Sunlit
N/A
Visualization observer readout
Local Sidereal Time
12:54:19
Azimuth
Unknown
Elevation
Unknown
Doppler factor
Unknown
Orbital elements
Apogee altitude
159.704 km
Perigee altitude
147.526 km
Semi-major axis
6,531.752 km
Eccentricity
0.00093
Inclination
53.01°
RAAN
84.7502°
Arg. of periapsis
249.7005°
True anomaly
214.36976°
Mean anomaly
214.4301°
Eccentric anomaly
214.39992°
Mean motion
4.11148 °/min
Orbital period
87.56 mins
BSTAR
0.00046957
Loading maneuver chart data...
Computing Atmospheric mass density...

Documentation

Showing up to 5 results
|